Location: Squirrel Cove
(50.1074°N, 124.9139°W)
Time: 13:37:52
(UTC-07:00)

PCSat - Pass Details

Date: 24 May 2022
Orbit: 784 x 795 km, 67.1° (Epoch: 26 June)

Event Time Altitude Azimuth Distance (km) Brightness Sun altitude
Rises 23:09:24 0° 308° (NW) 3,302 14.2 -13.6°
Reaches altitude 10° 23:13:17 10° 336° (NNW) 2,373 13.5 -13.9°
Maximum altitude 23:15:49 13° 4° (N) 2,156 12.7 -14.1°
Drops below altitude 10° 23:18:20 10° 32° (NNE) 2,374 12.4 -14.3°
Sets 23:22:13 0° 59° (ENE) 3,303 12.8 -14.6°
